Home > Weather > Oradea > Past weeks

Flag for Romania Past Weather in Oradea, Romania — Yesterday and Last 2 Weeks

Now
66 °F

Mild.


Feels Like: 66 °F
Forecast: 65 / 89 °F
Wind: 7 mph from East

Location: Oradea Airport

Current Time: Jul 24, 2016 at 6:03:57 AM

Latest Report: Jul 24, 2016 at 5:30 AM


Visibility: N/A

Pressure: 30.01 "Hg

Humidity: 88%

Dew Point: 63 °F

Location of OradeaLocation

Past Weather in Oradea — Graph

°F

Oradea Temperature Yesterday

Maximum temperature yesterday: 86 °F (at 2:30 PM)
Minimum temperature yesterday: 64 °F (at 5:30 AM)
Average temperature yesterday: 76 °F

High & Low Weather Summary for the Past Weeks

 TemperatureHumidityPressure
High93 °F (Jul 13, 2:00 PM)100% (Jul 18, 5:00 AM)30.09 "Hg (Jul 18, 5:00 AM)
Low54 °F (Jul 15, 6:30 AM)30% (Jul 12, 4:30 PM)29.65 "Hg (Jul 14, 9:00 AM)
Average71 °F68%29.97 "Hg
* Reported Jul 9 5:00 AM — Jul 24 5:00 AM, Oradea, Weather by CustomWeather, © 2016

Note: Actual official high and low records may vary slightly from our data, if they occured in-between our weather recording intervals... More about our weather records

Advertising

Oradea Weather History for the Previous 24 Hours

Scroll right to see more
 ConditionsComfort  
Time TempWeatherWind HumidityBarometerVisibility
5:00 AM
Sun, Jul 24
66 °FMild.7 mph88%30.01 "HgN/A
4:00 AM68 °FMild.8 mph88%30.01 "HgN/A
3:00 AM66 °FMild.5 mph94%30.01 "HgN/A
2:00 AM68 °FClear.6 mph88%30.01 "HgN/A
1:00 AM70 °FMild.6 mph83%30.04 "HgN/A
12:00 AM70 °FMild.5 mph88%30.01 "HgN/A
11:00 PM
Sat, Jul 23
72 °FMild.1 mph78%30.01 "HgN/A
10:30 PM73 °FMild.3 mph78%30.01 "HgN/A
10:00 PM75 °FMild.5 mph69%30.01 "HgN/A
9:30 PM77 °FPartly sunny.3 mph69%30.01 "HgN/A
9:00 PM77 °FSunny.6 mph65%30.01 "Hg10 mi
8:30 PM81 °FSunny.3 mph62%30.01 "Hg10 mi
8:00 PM81 °FSunny.5 mph62%30.01 "Hg10 mi
7:30 PM81 °FPassing clouds.5 mph58%30.01 "HgN/A
7:00 PM82 °FSunny.5 mph58%30.01 "Hg10 mi
6:30 PM81 °FSunny.5 mph62%30.01 "Hg10 mi
6:00 PM82 °FPassing clouds.5 mph58%30.01 "HgN/A
5:30 PM82 °FPassing clouds.6 mph62%30.01 "HgN/A
5:00 PM82 °FPassing clouds.7 mph58%30.01 "HgN/A
4:30 PM82 °FSunny.12 mph62%30.01 "Hg10 mi
4:00 PM84 °FScattered clouds.13 mph58%30.01 "HgN/A
3:30 PM86 °FScattered clouds.8 mph49%30.01 "HgN/A
3:00 PM84 °FScattered clouds.6 mph51%30.01 "HgN/A
2:30 PM86 °FScattered clouds.7 mph52%30.01 "HgN/A
2:00 PM84 °FScattered clouds.5 mph51%30.01 "HgN/A
1:30 PM84 °FScattered clouds.3 mph51%30.01 "HgN/A
12:30 PM82 °FPassing clouds.3 mph55%30.01 "HgN/A
12:00 PM84 °FPassing clouds.2 mph51%30.01 "HgN/A
11:30 AM82 °FPassing clouds.2 mph51%30.01 "HgN/A
11:00 AM82 °FPassing clouds.3 mph55%30.01 "HgN/A
10:30 AM82 °FPassing clouds.2 mph55%30.01 "HgN/A
10:00 AM79 °FSunny.1 mph61%30.01 "Hg10 mi
9:30 AM77 °FSunny.5 mph69%30.01 "Hg10 mi
9:00 AM73 °FSunny.6 mph74%30.01 "Hg10 mi
8:30 AM72 °FSunny.6 mph73%30.01 "Hg10 mi
8:00 AM68 °FSunny.7 mph83%30.01 "Hg10 mi
7:30 AM66 °FSunny.6 mph88%30.01 "Hg10 mi
7:00 AM66 °FClear.7 mph83%30.01 "Hg10 mi
6:30 AM66 °FPassing clouds.7 mph83%30.01 "HgN/A
6:00 AM64 °FMild.6 mph88%30.01 "HgN/A
Weather by CustomWeather, © 2016

See weather overviewHow to use our weather pages